Home > Weather > Kerman > Past weeks

Flag for Iran Past Weather in Kerman, Iran — Yesterday and Last 2 Weeks

Now
82 °F

Passing clouds.


Feels Like: 81 °F
Forecast: 68 / 93 °F
Wind: 5 mph from South

Location: Kerman Airport

Current Time: Jul 29, 2016 at 6:43:34 AM

Latest Report: Jul 29, 2016 at 5:30 AM


Visibility: 5 mi

Pressure: 29.95 "Hg (24.52 "Hg at 1762m altitude)

Humidity: 28%

Dew Point: 46 °F

Location of KermanLocation

Past Weather in Kerman — Graph

°F

Kerman Temperature Yesterday

Maximum temperature yesterday: 100 °F (at 1:30 PM)
Minimum temperature yesterday: 72 °F (at 5:30 AM)
Average temperature yesterday: 88 °F

High & Low Weather Summary for the Past Weeks

 TemperatureHumidityPressure
High104 °F (Jul 27, 3:30 PM)31% (Jul 28, 5:30 AM)30.09 "Hg (Jul 28, 5:30 AM)
Low59 °F (Jul 16, 4:20 AM)1% (Jul 16, 3:30 PM)29.86 "Hg (Jul 23, 4:21 PM)
Average84 °F12%29.97 "Hg
* Reported Jul 14 5:30 AM — Jul 29 5:30 AM, Kerman, Weather by CustomWeather, © 2016

Note: Actual official high and low records may vary slightly from our data, if they occured in-between our weather recording intervals... More about our weather records

Advertising

Kerman Weather History for the Previous 24 Hours

Scroll right to see more
 ConditionsComfort  
Time TempWeatherWind HumidityBarometerVisibility
5:30 AM
Fri, Jul 29
82 °FPassing clouds.5 mph28%29.95 "Hg5 mi
4:30 AM81 °FHaze.No wind28%29.92 "Hg3 mi
3:30 AM82 °FHaze.No wind26%29.92 "Hg3 mi
2:30 AM84 °FPassing clouds.No wind23%29.92 "Hg4 mi
1:30 AM86 °FPassing clouds.5 mph20%29.95 "Hg4 mi
12:30 AM86 °FPassing clouds.7 mph17%29.95 "HgN/A
11:30 PM
Thu, Jul 28
84 °FPassing clouds.No wind18%29.95 "HgN/A
10:30 PM90 °FPassing clouds.7 mph16%29.92 "HgN/A
9:30 PM91 °FPassing clouds.9 mph16%29.92 "HgN/A
8:30 PM91 °FPartly sunny.9 mph15%29.92 "Hg5 mi
7:30 PM93 °FPartly sunny.12 mph15%29.89 "Hg4 mi
6:30 PM95 °FPartly sunny.12 mph13%29.89 "Hg5 mi
5:30 PM99 °FPartly sunny.12 mph8%29.86 "HgN/A
4:30 PM99 °FScattered clouds.7 mph7%29.89 "HgN/A
3:30 PM100 °FScattered clouds.9 mph6%29.89 "HgN/A
2:30 PM100 °FPassing clouds.9 mph7%29.89 "HgN/A
1:30 PM100 °FPassing clouds.7 mph9%29.92 "HgN/A
12:30 PM99 °FPassing clouds.5 mph11%29.95 "HgN/A
11:30 AM95 °FPassing clouds.7 mph13%29.98 "HgN/A
10:30 AM93 °FPassing clouds.5 mph15%29.98 "HgN/A
9:30 AM93 °FPassing clouds.5 mph14%29.98 "HgN/A
8:30 AM86 °FPassing clouds.No wind17%30.01 "HgN/A
7:30 AM75 °FScattered clouds.No wind25%29.98 "HgN/A
6:30 AM73 °FPassing clouds.5 mph27%29.98 "HgN/A
Weather by CustomWeather, © 2016

See weather overviewHow to use our weather pages